Date String (YYYY-MM-DD hh:mm:ss) UTC,Instrument flags,Ambient pressure (hPa),Sample flow (lpm),Bypass flow (lpm),Sample temperature (°C),Ambient temperature (°C),ASC tube jacket temperature (°C),LED temperature (°C),Box temperature (°C),Sample RH (%),Span deviation,Mass concentration (μg/m³),Mass concentration (μg/m³),Mass concentration (μg/m³)
DateTimeUTC,F1_M11,P_M11,Q1_M11,Q2_M11,T1_M11,T2_M11,T3_M11,T4_M11,T5_M11,U1_M11,ZSPAN_M11,X0_M11,X2_M11,X1_M11
2023-04-05 13:00:00,,0826.3,5.00,0.00,22.3,21.0,00.0,30.8,23.7,09.9,0001.1,0014.44,0009.74,0009.21
2023-04-05 13:01:00,,0826.3,5.02,0.00,22.2,20.8,00.0,30.7,23.6,10.0,0001.2,0014.92,0009.76,0009.24
2023-04-05 13:02:00,,0826.3,4.99,0.00,22.2,20.6,00.0,30.7,23.6,10.0,0001.3,0014.92,0009.83,0009.29
2023-04-05 13:03:00,,0826.2,4.99,0.00,22.2,20.5,00.0,30.7,23.6,10.1,0001.2,0014.97,0009.90,0009.33
2023-04-05 13:04:00,,0826.2,5.01,0.00,22.2,21.3,00.0,30.6,23.9,10.1,0001.6,0015.11,0009.99,0009.40
2023-04-05 13:05:00,,0826.4,5.01,0.00,22.4,22.5,00.0,30.6,24.4,10.1,0001.6,0015.22,0010.06,0009.44
2023-04-05 13:06:00,,0826.4,4.99,0.00,22.6,23.3,00.0,30.6,24.6,10.0,0001.5,0015.33,0010.14,0009.47
2023-04-05 13:07:00,,0826.4,4.99,0.00,22.6,23.0,00.0,30.7,24.3,10.0,0001.5,0015.36,0010.15,0009.46
2023-04-05 13:08:00,,0826.3,5.00,0.00,22.5,22.4,00.0,30.8,24.1,10.1,0001.6,0015.19,0010.15,0009.45
2023-04-05 13:09:00,,0826.3,5.01,0.00,22.5,21.9,00.0,30.8,24.0,10.1,0001.8,0015.24,0010.21,0009.49
2023-04-05 13:10:00,,0826.4,5.01,0.00,22.4,21.5,00.0,30.8,23.8,10.2,0001.7,0015.35,0010.22,0009.50
2023-04-05 13:11:00,,0826.4,5.00,0.00,22.3,21.1,00.0,30.8,23.7,10.3,0001.5,0015.22,0010.21,0009.51
2023-04-05 13:12:00,,0826.4,5.00,0.00,22.3,20.9,00.0,30.7,23.7,10.4,0001.3,0014.70,0010.24,0009.51
2023-04-05 13:13:00,,0826.4,4.99,0.00,22.2,20.7,00.0,30.7,23.6,10.5,0001.1,0014.67,0010.24,0009.52
2023-04-05 13:14:00,,0826.5,5.02,0.00,22.3,21.4,00.0,30.7,24.0,10.6,0001.0,0014.55,0010.20,0009.51
2023-04-05 13:15:00,,0826.6,5.00,0.00,22.5,22.6,00.0,30.7,24.4,10.6,0000.9,0014.56,0010.22,0009.54
2023-04-05 13:16:00,,0826.6,5.00,0.00,22.6,23.4,00.0,30.7,24.6,10.6,0000.7,0014.60,0010.23,0009.53
2023-04-05 13:17:00,,0826.6,4.99,0.00,22.7,23.2,00.0,30.8,24.5,10.6,0000.6,0014.65,0010.23,0009.53
2023-04-05 13:18:00,,0826.6,5.01,0.00,22.7,22.8,00.0,30.8,24.3,10.7,0000.6,0014.76,0010.29,0009.58
2023-04-05 13:19:00,,0826.6,5.00,0.00,22.6,22.3,00.0,30.9,24.2,10.8,0000.1,0014.92,0010.37,0009.64
2023-04-05 13:20:00,,0826.5,4.98,0.00,22.6,21.9,00.0,30.9,24.0,10.9,-000.2,0014.46,0010.38,0009.63
2023-04-05 13:21:00,,0826.6,4.99,0.00,22.5,21.6,00.0,30.9,24.0,11.0,-000.0,0014.55,0010.42,0009.66
2023-04-05 13:22:00,,0826.6,5.02,0.00,22.5,21.4,00.0,30.9,23.9,11.0,0000.1,0014.72,0010.48,0009.68
2023-04-05 13:23:00,,0826.6,5.00,0.00,22.4,21.2,00.0,30.9,23.9,11.2,0000.3,0014.74,0010.50,0009.69
2023-04-05 13:24:00,,0826.6,4.99,0.00,22.4,21.0,00.0,30.8,23.9,11.3,0000.5,0014.80,0010.49,0009.68
2023-04-05 13:25:00,,0826.6,4.99,0.00,22.4,20.8,00.0,30.8,23.8,11.3,0000.6,0014.87,0010.49,0009.67
2023-04-05 13:26:00,,0826.6,5.01,0.00,22.3,20.8,00.0,30.8,23.8,11.4,0000.4,0014.87,0010.44,0009.62
2023-04-05 13:27:00,,0826.6,5.01,0.00,22.4,21.7,00.0,30.8,24.2,11.4,0000.5,0014.79,0010.36,0009.57
2023-04-05 13:28:00,,0826.7,4.99,0.00,22.6,23.0,00.0,30.8,24.6,11.3,0000.7,0014.66,0010.26,0009.50
2023-04-05 13:29:00,,0826.8,4.98,0.00,22.7,23.1,00.0,30.8,24.5,11.3,0000.9,0014.53,0010.18,0009.43
2023-04-05 13:30:00,,0826.7,5.00,0.00,22.7,22.8,00.0,30.9,24.3,11.3,0001.0,0014.35,0010.07,0009.36
2023-04-05 13:31:00,,0826.6,5.00,0.00,22.6,22.4,00.0,30.9,24.2,11.3,0000.9,0014.44,0009.94,0009.27
2023-04-05 13:32:00,,0826.6,5.00,0.00,22.6,22.0,00.0,30.9,24.1,11.3,0000.6,0014.24,0009.82,0009.19
2023-04-05 13:33:00,,0826.6,5.00,0.00,22.6,21.7,00.0,30.9,24.0,11.3,0000.6,0014.09,0009.73,0009.12
2023-04-05 13:34:00,,0826.6,5.00,0.00,22.5,21.4,00.0,30.9,23.9,11.3,0000.3,0014.09,0009.66,0009.05
2023-04-05 13:35:00,,0826.6,4.99,0.00,22.5,21.1,00.0,30.9,23.8,11.2,-000.0,0013.77,0009.55,0008.97
2023-04-05 13:36:00,,0826.7,5.00,0.00,22.4,20.9,00.0,30.9,23.8,11.1,-000.2,0013.68,0009.48,0008.89
2023-04-05 13:37:00,,0826.6,5.01,0.00,22.4,20.7,00.0,30.9,23.8,11.1,0000.2,0013.50,0009.40,0008.83
2023-04-05 13:38:00,,0826.6,5.01,0.00,22.4,20.9,00.0,30.8,23.9,11.1,0000.3,0013.54,0009.41,0008.81
2023-04-05 13:39:00,,0826.7,5.00,0.00,22.5,22.2,00.0,30.8,24.3,11.0,0000.2,0013.58,0009.44,0008.81
2023-04-05 13:40:00,,0826.8,5.00,0.00,22.7,23.3,00.0,30.8,24.7,10.9,0000.3,0013.91,0009.42,0008.81
2023-04-05 13:41:00,,0826.8,4.99,0.00,22.7,23.2,00.0,30.9,24.5,10.8,0000.5,0014.08,0009.40,0008.79
2023-04-05 13:42:00,,0826.8,4.99,0.00,22.7,22.8,00.0,30.9,24.3,10.8,0000.8,0013.89,0009.40,0008.77
2023-04-05 13:43:00,,0826.8,5.00,0.00,22.7,22.4,00.0,31.0,24.2,10.8,0000.8,0013.59,0009.35,0008.73
2023-04-05 13:44:00,,0826.8,4.99,0.00,22.6,22.0,00.0,31.0,24.1,10.8,0000.6,0013.39,0009.29,0008.69
2023-04-05 13:45:00,,0826.7,5.01,0.00,22.6,21.7,00.0,31.0,24.1,10.8,0000.6,0013.21,0009.22,0008.66
2023-04-05 13:46:00,,0826.7,5.00,0.00,22.6,21.5,00.0,31.0,24.0,10.8,0000.8,0013.18,0009.21,0008.65
2023-04-05 13:47:00,,0826.8,5.00,0.00,22.5,21.3,00.0,31.0,24.0,10.8,0001.0,0013.06,0009.16,0008.64
2023-04-05 13:48:00,,0826.8,5.00,0.00,22.5,21.1,00.0,30.9,23.9,10.9,0000.6,0013.02,0009.13,0008.62
2023-04-05 13:49:00,,0826.8,4.99,0.00,22.5,21.0,00.0,30.9,23.9,10.9,0000.7,0012.90,0009.05,0008.57
2023-04-05 13:50:00,,0826.8,5.00,0.00,22.4,21.0,00.0,30.9,23.9,10.9,0000.9,0013.17,0008.96,0008.53
2023-04-05 13:51:00,,0826.9,5.02,0.00,22.6,22.1,00.0,30.9,24.4,11.0,0000.8,0013.12,0008.94,0008.50
2023-04-05 13:52:00,,0826.9,5.00,0.00,22.7,23.4,00.0,30.9,24.8,10.9,0000.8,0013.72,0008.95,0008.47
2023-04-05 13:53:00,,0827.0,4.99,0.00,22.8,23.5,00.0,30.9,24.7,10.8,0000.7,0014.03,0008.94,0008.45
2023-04-05 13:54:00,,0827.0,4.99,0.00,22.8,23.1,00.0,31.0,24.5,10.7,0000.7,0014.07,0008.95,0008.44
2023-04-05 13:55:00,,0827.0,5.01,0.00,22.8,22.7,00.0,31.0,24.4,10.7,0000.7,0014.11,0008.95,0008.46
2023-04-05 13:56:00,,0826.9,5.00,0.00,22.8,22.4,00.0,31.0,24.3,10.7,0000.8,0014.06,0008.93,0008.45
2023-04-05 13:57:00,,0827.0,5.01,0.00,22.7,22.1,00.0,31.1,24.2,10.7,0001.0,0014.09,0008.95,0008.46
2023-04-05 13:58:00,,0827.0,5.00,0.00,22.7,21.8,00.0,31.1,24.2,10.6,0000.9,0014.13,0008.96,0008.47
2023-04-05 13:59:00,,0827.0,5.01,0.00,22.7,21.6,00.0,31.0,24.1,10.6,0001.0,0014.37,0008.97,0008.49
